STARLINK-1784

operational
NORAD ID: 46687 Int'l Des: 2020-073 Owner: SPXS Country: US Constellation: starlink
LEOCIRCULARSTARLINK_TYPE

STARLINK-1784について

説明を読み込み中...

リアルタイム位置

3D地球を読み込み中...

次回通過

高度履歴

Altitude vs Time

uPlot chart will show altitude changes over time

軌道要素

1 46687U 20073T 25251.47074658 .00005115 00000-0 36196-3 0 9999
2 46687 53.0543 319.6335 0001459 85.6081 274.5074 15.06406029269942
Epoch: Sep 8, 2025 • Age: 23 hours

現在のステータス

高度 548.9 km
速度 7.59 km/s
衛星直下点 34.40°N, 36.99°W
打ち上げ日 Oct 18, 2020
運用期間 4.8 years
タイプ internet

技術仕様

分類 Payload
質量 260.00 kg
乾燥質量 248.00 kg
総質量 260.00 kg
長さ 0.20 m
直径 2.80 m
スパン 9.00 m
形状 Box + pan
製造者 SPXS
バスタイプ Starlink
フェーズステータス In Orbit
所有者/国 SPXS/US

大規模コンステレーション

Loading constellations...